Date,TemperatureHighF,TemperatureAvgF,TemperatureLowF,DewpointHighF,DewpointAvgF,DewpointLowF,HumidityHigh,HumidityAvg,HumidityLow,PressureMaxIn,PressureMinIn,WindSpeedMaxMPH,WindSpeedAvgMPH,GustSpeedMaxMPH,PrecipitationSumIn
2013-3-1,35,32,28,32,28,23,92,86,79,29.91,29.69,12,2,12,0.02
2013-3-2,29,26,25,26,23,21,92,85,78,29.93,29.85,11,2,11,0.02
2013-3-3,28,25,23,22,20,18,88,81,72,29.90,29.84,11,2,11,0.01
2013-3-4,32,28,24,24,21,18,81,74,63,30.03,29.89,18,3,18,0.01
2013-3-5,34,29,25,26,23,20,90,78,70,30.11,29.99,10,1,10,0.00
2013-3-6,42,35,24,34,29,22,94,80,63,30.12,29.96,12,1,12,0.00
2013-3-7,41,36,32,30,27,25,79,70,58,30.25,30.12,12,1,12,0.00
2013-3-8,39,34,29,30,27,24,91,77,61,30.39,30.23,15,3,15,0.05
2013-3-9,45,34,26,34,28,23,91,79,49,30.43,30.28,9,1,9,0.00
2013-3-10,56,46,33,34,30,27,83,55,39,30.28,30.05,19,4,19,0.00
2013-3-11,54,49,46,44,35,29,79,58,47,30.07,29.75,23,5,23,0.00
2013-3-12,54,43,37,49,39,32,94,86,78,29.92,29.72,18,1,21,0.30
2013-3-13,42,36,28,33,26,18,89,69,53,29.95,29.81,18,2,18,0.03
2013-3-14,35,28,21,21,14,9,84,58,35,30.06,29.93,24,4,24,0.00
2013-3-15,38,32,23,31,24,16,80,70,58,30.05,29.73,18,2,18,0.01
2013-3-16,33,28,21,24,20,17,83,71,63,30.00,29.83,9,1,11,0.00
2013-3-17,32,26,19,24,19,14,87,75,63,30.36,29.99,11,1,11,0.01
2013-3-18,36,28,20,29,21,13,94,77,49,30.37,29.84,24,6,24,0.00
2013-3-19,46,34,28,36,29,21,92,81,58,29.85,29.67,22,4,24,0.11
2013-3-20,36,30,25,26,20,16,86,68,54,29.86,29.81,13,2,14,0.02
2013-3-21,33,28,21,24,18,13,86,67,46,29.85,29.73,13,2,13,0.00
2013-3-22,35,31,27,27,24,22,86,77,70,29.92,29.73,16,3,16,0.01
2013-3-23,40,34,31,27,25,24,80,70,55,30.00,29.89,17,3,17,0.00
2013-3-24,41,35,30,29,26,23,84,70,53,29.99,29.74,11,2,11,0.00
2013-3-25,42,36,30,32,28,25,85,74,61,29.74,29.57,12,1,12,0.00
2013-3-26,47,38,32,34,30,25,83,72,55,29.93,29.69,10,1,10,0.00
2013-3-27,49,38,33,36,31,28,92,76,48,30.05,29.91,19,2,19,0.06
2013-3-28,45,39,34,37,33,31,99,80,62,30.19,30.03,10,1,11,0.05
2013-3-29,47,41,34,36,33,30,92,75,63,30.20,30.11,11,1,11,0.00
2013-3-30,52,40,30,36,30,26,92,72,36,30.21,30.09,8,1,8,0.01
2013-3-31,55,42,34,42,35,26,95,76,48,30.09,29.66,17,3,25,0.34